Tallahassee, FL

7:12 PM EDT on April 24, 2018 (GMT -0400)
Tallahassee Regional

Weather History for KTLH - March, 2013

Change the Weather History Date:

Tuesday, March 5, 2013

  Actual Average Record
Temperature  
Mean Temperature 58 °F 58 °F  
Max Temperature 74 °F 72 °F 85 °F (1955)
Min Temperature 41 °F 45 °F 21 °F (2002)
Degree Days  
Heating Degree Days 7    
Month to date heating degree days 91  
Since 1 July heating degree days 1069  
Cooling Degree Days 0    
Month to date cooling degree days 0  
Year to date cooling degree days 50  
Growing Degree Days 6 (Base 50)    
Moisture  
Dew Point 50 °F    
Average Humidity 71    
Maximum Humidity 89    
Minimum Humidity 53    
Precipitation  
Precipitation 0.06 in 0.22 in 5.85 in (1959)
Month to date precipitation 0.06 1.09  
Year to date precipitation 13.27 10.28  
Sea Level Pressure  
Sea Level Pressure 30.03 in    
Wind  
Wind Speed 10 mph (SW)    
Max Wind Speed 23 mph    
Max Gust Speed 31 mph    
Visibility 10 miles    
Events Rain    
T = Trace of Precipitation, MM = Missing Value Source: NWS Daily Summary

Daily Weather History Graph

Daily Weather History Graph

Search for Another Location

Airport or City:

Astronomy

Mar. 05, 2013 Rise Set
Actual Time 6:58 AM EST 6:39 PM EST
Civil Twilight 6:34 AM EST 7:03 PM EST
Nautical Twilight 6:06 AM EST 7:31 PM EST
Astronomical Twilight 5:39 AM EST 7:58 PM EST
Moon 1:52 AM EST (3/5) 12:35 PM EST (3/5)
Length of Visible Light 12h 28m
Length of Day
11h 40m
Last Quarter, 41% of the Moon is Illuminated
Mar 5
Last Quarter
Mar 11
New
Mar 19
First Quarter
Mar 27
Full
Apr 3
Last Quarter

Hourly Weather History & Observations

Time (EST) Temp. Windchill Dew Point Humidity Pressure Visibility Wind Dir Wind Speed Gust Speed Precip Events Conditions
12:53 AM 43.0 °F 39.5 °F 34.0 °F 71% 30.11 in 10.0 mi ESE 5.8 mph - N/A   Clear
2:53 AM 46.0 °F - 39.9 °F 79% 30.09 in 10.0 mi Calm Calm - N/A   Clear
3:53 AM 44.1 °F - 37.9 °F 79% 30.08 in 10.0 mi Calm Calm - N/A   Clear
4:53 AM 44.1 °F - 37.9 °F 79% 30.09 in 10.0 mi Calm Calm - N/A   Clear
5:53 AM 42.1 °F - 37.0 °F 82% 30.10 in 10.0 mi Calm Calm - N/A   Clear
6:53 AM 43.0 °F - 39.0 °F 86% 30.11 in 10.0 mi Calm Calm - N/A   Mostly Cloudy
7:53 AM 50.0 °F - 46.0 °F 86% 30.10 in 10.0 mi ESE 4.6 mph - N/A   Mostly Cloudy
8:53 AM 57.9 °F - 51.1 °F 78% 30.12 in 10.0 mi SSE 4.6 mph - N/A   Overcast
9:53 AM 63.0 °F - 53.1 °F 70% 30.10 in 10.0 mi South 11.5 mph - N/A   Overcast
10:53 AM 66.9 °F - 52.0 °F 59% 30.08 in 10.0 mi South 13.8 mph 24.2 mph N/A   Scattered Clouds
11:53 AM 69.1 °F - 52.0 °F 54% 30.09 in 10.0 mi South 13.8 mph 21.9 mph N/A   Overcast
12:53 PM 71.1 °F - 54.0 °F 55% 30.06 in 10.0 mi SSW 15.0 mph 26.5 mph N/A   Mostly Cloudy
1:53 PM 70.0 °F - 55.0 °F 59% 30.02 in 10.0 mi SSW 11.5 mph 20.7 mph N/A   Mostly Cloudy
2:53 PM 71.1 °F - 55.9 °F 59% 30.00 in 10.0 mi SSW 16.1 mph 27.6 mph N/A   Mostly Cloudy
3:32 PM 71.6 °F - 55.4 °F 57% 29.99 in 10.0 mi South 17.3 mph 24.2 mph N/A   Mostly Cloudy
3:53 PM 73.0 °F - 57.0 °F 57% 29.97 in 10.0 mi SSW 13.8 mph 25.3 mph N/A   Mostly Cloudy
4:53 PM 72.0 °F - 57.9 °F 61% 29.95 in 10.0 mi SSW 13.8 mph 21.9 mph N/A   Mostly Cloudy
5:00 PM 71.6 °F - 57.2 °F 60% 29.95 in 10.0 mi SSW 12.7 mph 21.9 mph N/A   Mostly Cloudy
5:53 PM 71.1 °F - 57.9 °F 63% 29.95 in 10.0 mi SW 10.4 mph - 0.00 in   Mostly Cloudy
6:53 PM 71.1 °F - 55.0 °F 57% 29.93 in 10.0 mi SW 15.0 mph 25.3 mph N/A   Scattered Clouds
7:53 PM 69.1 °F - 55.9 °F 63% 29.94 in 10.0 mi WSW 17.3 mph 26.5 mph N/A   Partly Cloudy
8:53 PM 68.0 °F - 57.0 °F 68% 29.94 in 10.0 mi WSW 12.7 mph 24.2 mph N/A   Mostly Cloudy
9:19 PM 68.0 °F - 57.2 °F 68% 29.94 in 10.0 mi WSW 17.3 mph 23.0 mph N/A   Overcast
9:53 PM 64.9 °F - 61.0 °F 87% 29.97 in 5.0 mi WNW 16.1 mph 26.5 mph 0.05 in Rain Light Rain
10:04 PM 62.6 °F - 57.2 °F 82% 29.96 in 8.0 mi West 12.7 mph 24.2 mph 0.00 in Rain Light Rain
10:49 PM 62.6 °F - 53.6 °F 72% 29.99 in 10.0 mi WNW 19.6 mph 26.5 mph 0.01 in   Overcast
10:53 PM 62.1 °F - 52.0 °F 70% 30.00 in 10.0 mi NW 21.9 mph 28.8 mph 0.01 in   Mostly Cloudy
11:11 PM 60.8 °F - 51.8 °F 72% 30.01 in 10.0 mi NW 17.3 mph - N/A   Mostly Cloudy
11:53 PM 55.9 °F - 43.0 °F 62% 30.04 in 10.0 mi NW 19.6 mph 31.1 mph N/A   Partly Cloudy